| time (UTC) | temp F | wind direction | speed MPH | gust MPH | rain 1hr in | rain 24hr in | rain mn in | humidity % | barometer mb |
| 20260510080858 | 67 | 191 | 2.0 | 5.0 | 0.00 | 0.00 | 0.00 | 63 | 1007.8 |
| 20260510075958 | 67 | 191 | 2.0 | 5.0 | 0.00 | 0.00 | 0.00 | 63 | 1007.8 |
| 20260510075058 | 67 | 191 | 2.0 | 5.0 | 0.00 | 0.00 | 0.00 | 63 | 1007.7 |
| 20260510074158 | 67 | 191 | 2.0 | 5.0 | 0.00 | 0.00 | 0.00 | 63 | 1007.6 |
| 20260510073258 | 67 | 191 | 2.0 | 5.0 | 0.00 | 0.00 | 0.00 | 63 | 1007.6 |
| 20260510072358 | 67 | 191 | 2.0 | 5.0 | 0.00 | 0.00 | 0.00 | 63 | 1007.8 |
| 20260510071458 | 67 | 191 | 2.0 | 5.0 | 0.00 | 0.00 | 0.00 | 63 | 1007.8 |
| 20260510070558 | 67 | 191 | 2.0 | 5.0 | 0.00 | 0.00 | 0.00 | 63 | 1007.7 |
| 20260510065658 | 67 | 191 | 2.0 | 5.0 | 0.00 | 0.00 | 0.00 | 63 | 1007.4 |
| 20260510064758 | 67 | 191 | 2.0 | 5.0 | 0.00 | 0.00 | 0.00 | 63 | 1007.3 |
| 20260510063858 | 67 | 191 | 2.0 | 5.0 | 0.00 | 0.00 | 0.00 | 63 | 1007.4 |
| 20260510062958 | 67 | 191 | 2.0 | 5.0 | 0.00 | 0.00 | 0.00 | 63 | 1007.4 |
| 20260510062058 | 67 | 191 | 2.0 | 5.0 | 0.00 | 0.00 | 0.00 | 63 | 1007.4 |
| 20260510061158 | 67 | 191 | 2.0 | 5.0 | 0.00 | 0.00 | 0.00 | 63 | 1007.3 |
| 20260510060258 | 67 | 191 | 2.0 | 5.0 | 0.00 | 0.00 | 0.00 | 63 | 1007.3 |
| 20260510055358 | 67 | 191 | 2.0 | 5.0 | 0.00 | 0.00 | 0.00 | 63 | 1007.2 |
| 20260510054458 | 67 | 191 | 2.0 | 5.0 | 0.00 | 0.00 | 0.00 | 63 | 1007.2 |
| 20260510053558 | 67 | 191 | 2.0 | 5.0 | 0.00 | 0.00 | 0.00 | 63 | 1007.2 |
| 20260510052658 | 67 | 191 | 2.0 | 5.0 | 0.00 | 0.00 | 0.00 | 63 | 1007.3 |
| 20260510050858 | 67 | 191 | 2.0 | 5.0 | 0.00 | 0.00 | 0.00 | 63 | 1007.2 |
| 20260510045058 | 67 | 191 | 2.0 | 5.0 | 0.00 | 0.00 | 0.00 | 63 | 1007.1 |
| 20260510044158 | 67 | 191 | 2.0 | 5.0 | 0.00 | 0.00 | 0.00 | 63 | 1007.1 |
| 20260510043258 | 67 | 191 | 2.0 | 5.0 | 0.00 | 0.00 | 0.00 | 63 | 1007.1 |
| 20260510042358 | 67 | 191 | 2.0 | 5.0 | 0.00 | 0.00 | 0.00 | 63 | 1007.0 |
| 20260510041458 | 67 | 191 | 2.0 | 5.0 | 0.00 | 0.00 | 0.00 | 63 | 1007.0 |
| 20260510040558 | 67 | 191 | 2.0 | 5.0 | 0.00 | 0.00 | 0.00 | 63 | 1007.0 |
| 20260510035658 | 67 | 191 | 2.0 | 5.0 | 0.00 | 0.00 | 0.00 | 63 | 1006.9 |
| 20260510034757 | 67 | 191 | 2.0 | 5.0 | 0.00 | 0.00 | 0.00 | 63 | 1007.0 |
| 20260510033858 | 67 | 191 | 2.0 | 5.0 | 0.00 | 0.00 | 0.00 | 63 | 1007.0 |
| 20260510032958 | 67 | 191 | 2.0 | 5.0 | 0.00 | 0.00 | 0.00 | 63 | 1007.0 |
| 20260510032058 | 67 | 191 | 2.0 | 5.0 | 0.00 | 0.00 | 0.00 | 63 | 1007.1 |
| 20260510031158 | 67 | 191 | 2.0 | 5.0 | 0.00 | 0.00 | 0.00 | 63 | 1007.4 |
| 20260510030258 | 67 | 191 | 2.0 | 5.0 | 0.00 | 0.00 | 0.00 | 63 | 1007.0 |
| 20260510024458 | 67 | 191 | 2.0 | 5.0 | 0.00 | 0.00 | 0.00 | 63 | 1006.5 |
| 20260510023558 | 67 | 191 | 2.0 | 5.0 | 0.00 | 0.00 | 0.00 | 63 | 1006.4 |
| 20260510022658 | 67 | 191 | 2.0 | 5.0 | 0.00 | 0.00 | 0.00 | 63 | 1006.2 |
| 20260510021757 | 67 | 191 | 2.0 | 5.0 | 0.00 | 0.00 | 0.00 | 63 | 1006.2 |
| 20260510020858 | 67 | 191 | 2.0 | 5.0 | 0.00 | 0.00 | 0.00 | 63 | 1006.1 |
| 20260510015958 | 67 | 191 | 2.0 | 5.0 | 0.00 | 0.00 | 0.00 | 63 | 1006.0 |
| 20260510015058 | 67 | 191 | 2.0 | 5.0 | 0.00 | 0.00 | 0.00 | 63 | 1005.8 |
| 20260510014158 | 67 | 191 | 2.0 | 5.0 | 0.00 | 0.00 | 0.00 | 63 | 1005.7 |
| 20260510013258 | 67 | 191 | 2.0 | 5.0 | 0.00 | 0.00 | 0.00 | 63 | 1005.7 |
| 20260510012358 | 67 | 191 | 2.0 | 5.0 | 0.00 | 0.00 | 0.00 | 63 | 1005.6 |
| 20260510011458 | 67 | 191 | 2.0 | 5.0 | 0.00 | 0.00 | 0.00 | 63 | 1005.4 |
| 20260510010558 | 67 | 191 | 2.0 | 5.0 | 0.00 | 0.00 | 0.00 | 63 | 1005.2 |
| 20260510005658 | 67 | 191 | 2.0 | 5.0 | 0.00 | 0.00 | 0.00 | 63 | 1005.3 |
| 20260510004758 | 67 | 191 | 2.0 | 5.0 | 0.00 | 0.00 | 0.00 | 63 | 1005.2 |
| 20260510003858 | 67 | 191 | 2.0 | 5.0 | 0.00 | 0.00 | 0.00 | 63 | 1005.2 |
| 20260510002058 | 67 | 191 | 2.0 | 5.0 | 0.00 | 0.00 | 0.00 | 63 | 1005.1 |
| 20260510001158 | 67 | 191 | 2.0 | 5.0 | 0.00 | 0.00 | 0.00 | 63 | 1005.1 |
| 20260510000258 | 67 | 190 | 3.0 | 5.0 | 0.00 | 0.00 | 0.00 | 63 | 1004.9 |
| 20260509235358 | 68 | 176 | 4.0 | 8.0 | 0.00 | 0.00 | 0.00 | 61 | 1004.7 |
| 20260509234458 | 68 | 172 | 5.0 | 12.0 | 0.00 | 0.00 | 0.00 | 61 | 1004.5 |
| 20260509233558 | 68 | 169 | 5.0 | 12.0 | 0.00 | 0.00 | 0.00 | 60 | 1004.6 |
| 20260509232658 | 69 | 165 | 5.0 | 11.0 | 0.00 | 0.00 | 0.00 | 59 | 1004.6 |
| 20260509231758 | 69 | 171 | 5.0 | 12.0 | 0.00 | 0.00 | 0.00 | 58 | 1004.6 |
| 20260509230857 | 70 | 173 | 6.0 | 15.0 | 0.00 | 0.00 | 0.00 | 57 | 1004.5 |
| 20260509225958 | 70 | 169 | 5.0 | 11.0 | 0.00 | 0.00 | 0.00 | 56 | 1004.5 |
| 20260509225058 | 70 | 173 | 5.0 | 10.0 | 0.00 | 0.00 | 0.00 | 56 | 1004.5 |
| 20260509224157 | 70 | 168 | 6.0 | 12.0 | 0.00 | 0.00 | 0.00 | 56 | 1004.7 |
| 20260509223257 | 70 | 175 | 6.0 | 12.0 | 0.00 | 0.00 | 0.00 | 55 | 1004.8 |
| 20260509222358 | 71 | 171 | 6.0 | 12.0 | 0.00 | 0.00 | 0.00 | 54 | 1004.8 |
| 20260509221458 | 71 | 173 | 5.0 | 12.0 | 0.00 | 0.00 | 0.00 | 54 | 1004.8 |
| 20260509220558 | 71 | 173 | 6.0 | 14.0 | 0.00 | 0.00 | 0.00 | 53 | 1004.9 |
| 20260509215658 | 71 | 170 | 5.0 | 10.0 | 0.00 | 0.00 | 0.00 | 54 | 1004.9 |
| 20260509214758 | 71 | 168 | 4.0 | 9.0 | 0.00 | 0.00 | 0.00 | 54 | 1004.8 |
| 20260509213857 | 70 | 161 | 4.0 | 10.0 | 0.00 | 0.00 | 0.00 | 56 | 1004.8 |
| 20260509212958 | 70 | 158 | 4.0 | 11.0 | 0.00 | 0.00 | 0.00 | 58 | 1004.9 |
| 20260509212058 | 70 | 169 | 4.0 | 9.0 | 0.00 | 0.00 | 0.00 | 57 | 1005.1 |
| 20260509211157 | 70 | 179 | 4.0 | 10.0 | 0.00 | 0.00 | 0.00 | 58 | 1005.2 |
| 20260509210258 | 71 | 169 | 5.0 | 14.0 | 0.00 | 0.00 | 0.00 | 56 | 1005.1 |
| 20260509205357 | 71 | 158 | 5.0 | 12.0 | 0.00 | 0.00 | 0.00 | 56 | 1005.1 |
| 20260509204457 | 71 | 166 | 5.0 | 10.0 | 0.00 | 0.00 | 0.00 | 56 | 1005.2 |
| 20260509203557 | 71 | 160 | 5.0 | 10.0 | 0.00 | 0.00 | 0.00 | 57 | 1005.2 |
| 20260509202657 | 70 | 178 | 5.0 | 10.0 | 0.00 | 0.00 | 0.00 | 59 | 1005.3 |
| 20260509201757 | 70 | 187 | 4.0 | 10.0 | 0.00 | 0.00 | 0.00 | 59 | 1005.6 |
| 20260509200857 | 69 | 158 | 5.0 | 14.0 | 0.00 | 0.00 | 0.00 | 63 | 1005.6 |
| 20260509195058 | 70 | 165 | 4.0 | 11.0 | 0.00 | 0.00 | 0.00 | 61 | 1005.7 |
| 20260509194157 | 69 | 161 | 5.0 | 14.0 | 0.00 | 0.00 | 0.00 | 63 | 1005.7 |
| 20260509193258 | 69 | 163 | 4.0 | 9.0 | 0.00 | 0.00 | 0.00 | 65 | 1005.8 |
| 20260509192359 | 68 | 167 | 5.0 | 11.0 | 0.00 | 0.00 | 0.00 | 64 | 1005.9 |
| 20260509191457 | 68 | 170 | 4.0 | 10.0 | 0.00 | 0.00 | 0.00 | 66 | 1006.1 |
| 20260509190558 | 67 | 164 | 5.0 | 11.0 | 0.00 | 0.00 | 0.00 | 67 | 1006.2 |
| 20260509185657 | 66 | 175 | 4.0 | 9.0 | 0.00 | 0.00 | 0.00 | 68 | 1006.4 |
| 20260509184757 | 66 | 157 | 4.0 | 9.0 | 0.00 | 0.00 | 0.00 | 67 | 1006.4 |
| 20260509183857 | 66 | 156 | 3.0 | 7.0 | 0.00 | 0.00 | 0.00 | 70 | 1006.6 |
| 20260509182957 | 66 | 150 | 2.0 | 8.0 | 0.00 | 0.00 | 0.00 | 71 | 1006.8 |
| 20260509181157 | 65 | 156 | 2.0 | 6.0 | 0.00 | 0.00 | 0.00 | 76 | 1006.8 |
| 20260509180258 | 64 | 149 | 2.0 | 6.0 | 0.00 | 0.00 | 0.00 | 75 | 1006.7 |
| 20260509175358 | 64 | 165 | 2.0 | 6.0 | 0.00 | 0.00 | 0.00 | 75 | 1006.7 |
| 20260509173600 | 62 | 155 | 3.0 | 10.0 | 0.00 | 0.00 | 0.00 | 80 | 1006.9 |
| 20260509172658 | 62 | 161 | 3.0 | 10.0 | 0.00 | 0.00 | 0.00 | 80 | 1007.0 |
| 20260509171757 | 61 | 159 | 3.0 | 7.0 | 0.00 | 0.00 | 0.00 | 82 | 1006.9 |
| 20260509170857 | 60 | 161 | 3.0 | 8.0 | 0.00 | 0.00 | 0.00 | 83 | 1006.9 |
| 20260509165958 | 60 | 171 | 5.0 | 9.0 | 0.00 | 0.00 | 0.00 | 83 | 1007.0 |
| 20260509165058 | 60 | 175 | 5.0 | 11.0 | 0.00 | 0.00 | 0.00 | 84 | 1007.0 |
| 20260509164157 | 59 | 181 | 5.0 | 10.0 | 0.00 | 0.00 | 0.00 | 84 | 1006.9 |
| 20260509163257 | 59 | 179 | 4.0 | 9.0 | 0.00 | 0.00 | 0.00 | 87 | 1006.8 |
| 20260509162357 | 58 | 175 | 3.0 | 8.0 | 0.00 | 0.00 | 0.00 | 88 | 1006.7 |
| 20260509161457 | 58 | 177 | 1.0 | 10.0 | 0.00 | 0.00 | 0.00 | 88 | 1006.7 |
| 20260509160557 | 57 | 158 | 1.0 | 4.0 | 0.00 | 0.00 | 0.00 | 90 | 1006.5 |
| 20260509155657 | 57 | 175 | 1.0 | 5.0 | 0.00 | 0.00 | 0.00 | 90 | 1006.5 |
| 20260509152957 | 57 | 181 | 1.0 | 6.0 | 0.00 | 0.00 | 0.00 | 91 | 1006.2 |
| 20260509152058 | 56 | 169 | 2.0 | 7.0 | 0.00 | 0.00 | 0.00 | 91 | 1006.4 |
| 20260509151157 | 56 | 176 | 3.0 | 6.0 | 0.00 | 0.00 | 0.00 | 92 | 1006.4 |
| 20260509144457 | 73 | 159 | 2.0 | 5.0 | 0.00 | 0.00 | 0.00 | 51 | 1006.2 |
| 20260509143558 | 73 | 159 | 2.0 | 5.0 | 0.00 | 0.00 | 0.00 | 51 | 1006.4 |
| 20260509142657 | 73 | 159 | 2.0 | 5.0 | 0.00 | 0.00 | 0.00 | 51 | 1006.6 |
| 20260509141757 | 73 | 159 | 2.0 | 5.0 | 0.00 | 0.00 | 0.00 | 51 | 1006.7 |
| 20260509140858 | 73 | 159 | 2.0 | 5.0 | 0.00 | 0.00 | 0.00 | 51 | 1006.7 |
| 20260509134157 | 73 | 159 | 2.0 | 5.0 | 0.00 | 0.00 | 0.00 | 51 | 1007.0 |
| 20260509133257 | 73 | 159 | 2.0 | 5.0 | 0.00 | 0.00 | 0.00 | 51 | 1007.0 |
| 20260509132358 | 73 | 159 | 2.0 | 5.0 | 0.00 | 0.00 | 0.00 | 51 | 1007.1 |
| 20260509131457 | 73 | 159 | 2.0 | 5.0 | 0.00 | 0.00 | 0.00 | 51 | 1007.0 |
| 20260509130557 | 73 | 159 | 2.0 | 5.0 | 0.00 | 0.00 | 0.00 | 51 | 1006.9 |
| 20260509125657 | 73 | 159 | 2.0 | 5.0 | 0.00 | 0.00 | 0.00 | 51 | 1007.1 |
| 20260509124757 | 73 | 159 | 2.0 | 5.0 | 0.00 | 0.00 | 0.00 | 51 | 1007.1 |
| 20260509123857 | 73 | 159 | 2.0 | 5.0 | 0.00 | 0.00 | 0.00 | 51 | 1007.2 |
| 20260509122957 | 73 | 159 | 2.0 | 5.0 | 0.00 | 0.00 | 0.00 | 51 | 1007.3 |
| 20260509122057 | 73 | 159 | 2.0 | 5.0 | 0.00 | 0.00 | 0.00 | 51 | 1007.4 |
| 20260509120257 | 73 | 159 | 2.0 | 5.0 | 0.00 | 0.00 | 0.00 | 51 | 1007.4 |
| 20260509115357 | 73 | 159 | 2.0 | 5.0 | 0.00 | 0.00 | 0.00 | 51 | 1007.3 |
| 20260509113558 | 73 | 159 | 2.0 | 5.0 | 0.00 | 0.00 | 0.00 | 51 | 1007.2 |
| 20260509112658 | 73 | 159 | 2.0 | 5.0 | 0.00 | 0.00 | 0.00 | 51 | 1007.2 |
| 20260509111757 | 73 | 159 | 2.0 | 5.0 | 0.00 | 0.00 | 0.00 | 51 | 1007.1 |
| 20260509105957 | 73 | 159 | 2.0 | 5.0 | 0.00 | 0.00 | 0.00 | 51 | 1006.9 |
| 20260509105057 | 73 | 159 | 2.0 | 5.0 | 0.00 | 0.00 | 0.00 | 51 | 1006.8 |
| 20260509104157 | 73 | 159 | 2.0 | 5.0 | 0.00 | 0.00 | 0.00 | 51 | 1006.9 |
| 20260509103257 | 73 | 159 | 2.0 | 5.0 | 0.00 | 0.00 | 0.00 | 51 | 1006.9 |
| 20260509102357 | 73 | 159 | 2.0 | 5.0 | 0.00 | 0.00 | 0.00 | 51 | 1006.8 |
| 20260509100557 | 73 | 159 | 2.0 | 5.0 | 0.00 | 0.00 | 0.00 | 51 | 1006.8 |
| 20260509095657 | 73 | 159 | 2.0 | 5.0 | 0.00 | 0.00 | 0.00 | 51 | 1006.9 |
| 20260509094757 | 73 | 159 | 2.0 | 5.0 | 0.00 | 0.00 | 0.00 | 51 | 1006.9 |
| 20260509092057 | 73 | 159 | 2.0 | 5.0 | 0.00 | 0.00 | 0.00 | 51 | 1007.3 |
| 20260509091157 | 73 | 159 | 2.0 | 5.0 | 0.00 | 0.00 | 0.00 | 51 | 1007.3 |
| 20260509085357 | 73 | 159 | 2.0 | 5.0 | 0.00 | 0.00 | 0.00 | 51 | 1007.4 |
| 20260509084457 | 73 | 159 | 2.0 | 5.0 | 0.00 | 0.00 | 0.00 | 51 | 1007.4 |
| 20260509083557 | 73 | 159 | 2.0 | 5.0 | 0.00 | 0.00 | 0.00 | 51 | 1007.4 |
| 20260509082657 | 73 | 159 | 2.0 | 5.0 | 0.00 | 0.00 | 0.00 | 51 | 1007.5 |
| 20260509081757 | 73 | 159 | 2.0 | 5.0 | 0.00 | 0.00 | 0.00 | 51 | 1007.6 |